{"data":{"norad_id":47287,"intl_designator":"2020-100AF","name":"ONEWEB-0141","alt_names":[],"object_type":"PAYLOAD","status":"ACTIVE","operator":null,"country":"UK","launch_date":"2020-12-18","launch_site_code":"VOSTO","launch_vehicle":null,"mission":null,"orbit_class":"UNKNOWN","rcs_meters":null,"size_class":null,"mass_kg":null,"dimensions":null,"purposes":["comms"],"wikipedia_slug":null,"has_3d_model":false,"image_url":null,"decayed_at":null,"tle_current":{"epoch":"2026-05-25T03:27:28.950912Z","epoch_age_seconds":59696,"freshness":"FRESH","line1":"1 47287U 20100AF  26145.14408508 -.00000341  00000+0 -98459-3 0  9996","line2":"2 47287  87.8959 355.2294 0001979  93.9518 266.1836 13.12442168261651","mean_motion":13.12442168,"eccentricity":0.0001979,"inclination_deg":87.8959,"raan_deg":355.2294,"arg_perigee_deg":93.9518,"mean_anomaly_deg":266.1836,"bstar":-0.00098459,"rev_number":26165,"period_min":109.71912021041,"perigee_km":1212.2240697465,"apogee_km":1215.2289293196,"semimajor_km":7591.8634995331,"source":"CELESTRAK","updated_at":"2026-05-25T13:38:22.385697Z"}}}